Weather History for KOGD - December, 2012

Change the Weather History Date:

Wednesday, December 12, 2012

  Actual Average Record
Temperature  
Mean Temperature 42 °F -  
Max Temperature 46 °F 37 °F 60 °F (2014)
Min Temperature 39 °F 20 °F -15 °F (1932)
Degree Days  
Heating Degree Days 22    
Moisture  
Dew Point 23 °F    
Average Humidity 45    
Maximum Humidity 60    
Minimum Humidity 37    
Precipitation  
Precipitation 0.00 in - - ()
Sea Level Pressure  
Sea Level Pressure 29.70 in    
Wind  
Wind Speed 13 mph (South)    
Max Wind Speed 22 mph    
Max Gust Speed 33 mph    
Visibility 10 miles    
Events      
Averages and records for this station are not official NWS values.
T = Trace of Precipitation, MM = Missing Value Source: NWS Daily Summary

Daily Weather History Graph

Daily Weather History Graph

Search for Another Location

Airport or City:

Trip Planner

Search our weather history database for the weather conditions in past years. The results will help you decide how hot, cold, wet, or windy it might be!

Date:

Astronomy

Dec. 12, 2012 Rise Set
Actual Time 7:44 AM MST 4:59 PM MST
Civil Twilight 7:13 AM MST 5:30 PM MST
Nautical Twilight 6:38 AM MST 6:05 PM MST
Astronomical Twilight 6:05 AM MST 6:38 PM MST
Moon 6:52 AM MST (12/12) 4:40 PM MST (12/12)
Length of Visible Light 10h 17m
Length of Day
9h 14m
Waning Crescent, 0% of the Moon is Illuminated
Dec 12
Waning Crescent
Dec 13
New
Dec 19
First Quarter
Dec 28
Full
Jan 4
Last Quarter

Hourly Weather History & Observations

Time (MST) Temp. Windchill Dew Point Humidity Pressure Visibility Wind Dir Wind Speed Gust Speed Precip Events Conditions
12:53 AM 45.0 °F 37.1 °F 21.9 °F 40% 29.66 in 10.0 mi South 19.6 mph 31.1 mph N/A   Clear
1:53 AM 46.0 °F 38.0 °F 21.0 °F 37% 29.62 in 10.0 mi South 21.9 mph 33.4 mph N/A   Clear
2:53 AM 45.0 °F 36.9 °F 21.0 °F 39% 29.63 in 10.0 mi South 20.7 mph - N/A   Clear
3:53 AM 45.0 °F 36.6 °F 19.9 °F 37% 29.60 in 10.0 mi South 21.9 mph 29.9 mph N/A   Clear
4:53 AM 44.1 °F 38.6 °F 21.0 °F 40% 29.62 in 10.0 mi South 10.4 mph - N/A   Clear
5:53 AM 43.0 °F 35.7 °F 21.0 °F 42% 29.62 in 10.0 mi South 15.0 mph - N/A   Clear
6:53 AM 43.0 °F 36.0 °F 21.0 °F 42% 29.65 in 10.0 mi South 13.8 mph - N/A   Clear
7:53 AM 41.0 °F 33.9 °F 21.0 °F 45% 29.66 in 10.0 mi South 12.7 mph - N/A   Clear
8:53 AM 43.0 °F 36.4 °F 21.0 °F 42% 29.69 in 10.0 mi South 12.7 mph - N/A   Clear
9:53 AM 39.0 °F 36.8 °F 26.1 °F 60% 29.74 in 10.0 mi North 3.5 mph - N/A   Mostly Cloudy
10:53 AM 45.0 °F 42.6 °F 24.1 °F 44% 29.75 in 10.0 mi Variable 4.6 mph - N/A   Overcast
11:53 AM 46.0 °F 43.9 °F 24.1 °F 42% 29.74 in 10.0 mi West 4.6 mph - N/A   Mostly Cloudy
12:53 PM 46.0 °F - 24.1 °F 42% 29.72 in 10.0 mi Calm Calm - N/A   Partly Cloudy
1:53 PM 46.0 °F 43.1 °F 25.0 °F 44% 29.71 in 10.0 mi SSW 5.8 mph - N/A   Overcast
2:53 PM 46.0 °F 44.8 °F 26.1 °F 46% 29.71 in 10.0 mi SSW 3.5 mph - N/A   Overcast
3:53 PM 46.9 °F - 24.1 °F 41% 29.72 in 10.0 mi Calm Calm - N/A   Mostly Cloudy
4:53 PM 45.0 °F - 24.1 °F 44% 29.73 in 10.0 mi Calm Calm - N/A   Mostly Cloudy
5:53 PM 42.1 °F 40.2 °F 25.0 °F 51% 29.74 in 10.0 mi ESE 3.5 mph - N/A   Scattered Clouds
6:53 PM 39.9 °F 34.5 °F 26.1 °F 58% 29.73 in 10.0 mi SSE 8.1 mph - N/A   Clear
7:53 PM 41.0 °F 35.8 °F 25.0 °F 53% 29.73 in 10.0 mi SSE 8.1 mph - N/A   Partly Cloudy
8:53 PM 41.0 °F 35.8 °F 24.1 °F 51% 29.73 in 10.0 mi SSE 8.1 mph - N/A   Clear
9:53 PM 41.0 °F 34.3 °F 23.0 °F 49% 29.75 in 10.0 mi South 11.5 mph - N/A   Clear
10:53 PM 39.9 °F 35.1 °F 23.0 °F 51% 29.74 in 10.0 mi SSE 6.9 mph - N/A   Partly Cloudy
11:53 PM 42.1 °F 35.7 °F 21.9 °F 45% 29.74 in 10.0 mi South 11.5 mph - N/A   Clear